{"data":{"norad_id":52090,"epoch":"2026-09-19T16:30:18.804096Z","epoch_age_seconds":125653,"freshness":"FRESH","line1":"1 52090U 22029C   26262.68771764  .00000137  00000+0  15505-4 0  9995","line2":"2 52090  53.1592 285.5498 0001330  85.0593 275.0561 15.33549606250118","mean_motion":15.33549606,"eccentricity":0.000133,"inclination_deg":53.1592,"raan_deg":285.5498,"arg_perigee_deg":85.0593,"mean_anomaly_deg":275.0561,"bstar":1.5505e-5,"rev_number":25011,"period_min":93.899799156546,"perigee_km":464.32179023888,"apogee_km":466.14212638179,"semimajor_km":6843.3689583103,"source":"CELESTRAK","updated_at":"2026-09-20T09:00:39.983921Z"}}